Location: *
(58.7167°N, 26.1833°E)
Time: 21:15:01
(UTC+00:00)

SL-27 R/B - Pass Details

Date: 25 August 2019
Orbit: 421 x 471 km, 74.7° (Epoch: 22 October)

Event Time Altitude Azimuth Distance (km) Brightness Sun altitude
Exits shadow 20:07:37 31° 178° (S) 858 3.3 -15.8°
Maximum altitude 20:09:06 56° 114° (ESE) 569 2.6 -15.9°
Drops below altitude 10° 20:12:41 10° 35° (NE) 1,652 5.5 -16.2°
Sets 20:14:49 0° 32° (NNE) 2,535 6.6 -16.3°
